GFSSW_500_temp_276.txt.gz
Temp
-3 -3 -3 -3 -3 -3 -3 -4 -3 -3 -3 -3 -3 -3 -3 -3 -3 -3 -3 -3 -3 -4 -4 -5 -5 -5 -5 -6 -6 -7 -7 -6 -6 -6 -6 -6 -6 -6 -5 -6 -6 -5 -6 -6 -6
-4 -4 -4 -3 -3 -3 -3 -3 -3 -3 -3 -3 -4 -4 -3 -3 -3 -3 -2 -3 -3 -3 -4 -4 -5 -5 -6 -6 -7 -7 -7 -6 -6 -6 -6 -6 -6 -6 -6 -6 -6 -6 -6 -6 -6
-4 -4 -4 -4 -4 -3 -3 -3 -3 -3 -3 -3 -3 -4 -3 -4 -3 -3 -3 -3 -3 -3 -3 -4 -5 -5 -6 -7 -7 -7 -8 -7 -7 -7 -6 -6 -6 -6 -6 -6 -6 -6 -6 -6 -6
-5 -4 -4 -4 -4 -4 -4 -3 -3 -3 -3 -3 -4 -4 -4 -3 -3 -3 -3 -3 -3 -3 -3 -4 -5 -5 -6 -7 -7 -8 -8 -7 -7 -7 -7 -6 -7 -7 -7 -6 -6 -6 -6 -6 -6
-5 -5 -4 -4 -4 -4 -4 -4 -4 -4 -4 -3 -4 -4 -4 -4 -3 -3 -3 -3 -3 -4 -4 -3 -4 -4 -5 -7 -7 -8 -8 -8 -7 -8 -8 -7 -7 -7 -7 -7 -7 -7 -6 -6 -6
-5 -5 -5 -5 -4 -4 -4 -4 -4 -3 -4 -4 -4 -4 -4 -4 -4 -4 -4 -3 -3 -4 -4 -4 -4 -5 -5 -6 -6 -7 -7 -8 -8 -8 -8 -8 -8 -7 -7 -7 -7 -7 -6 -6 -7
-5 -5 -5 -5 -5 -4 -4 -4 -4 -4 -4 -4 -4 -4 -4 -4 -4 -4 -4 -3 -4 -4 -4 -4 -4 -4 -5 -6 -6 -6 -7 -7 -7 -7 -8 -7 -8 -8 -7 -8 -7 -7 -6 -7 -7
-5 -5 -5 -5 -5 -4 -4 -4 -4 -4 -4 -4 -4 -4 -4 -4 -4 -4 -4 -4 -4 -4 -4 -5 -5 -5 -5 -5 -6 -6 -6 -7 -7 -7 -7 -7 -7 -8 -8 -7 -7 -7 -7 -7 -7
-6 -6 -5 -5 -5 -4 -4 -4 -4 -4 -4 -4 -4 -4 -4 -5 -4 -4 -4 -4 -4 -4 -4 -5 -5 -5 -5 -5 -5 -6 -6 -7 -7 -7 -7 -8 -8 -8 -8 -7 -7 -8 -8 -7 -7
-6 -6 -6 -5 -5 -4 -4 -4 -4 -4 -4 -4 -4 -5 -4 -5 -5 -5 -4 -4 -4 -4 -4 -4 -4 -5 -6 -6 -5 -5 -6 -6 -7 -7 -7 -7 -7 -7 -8 -7 -7 -7 -8 -8 -7
-7 -6 -6 -6 -5 -5 -4 -4 -4 -4 -4 -4 -4 -4 -5 -5 -5 -5 -5 -4 -4 -4 -4 -4 -4 -5 -6 -7 -6 -6 -5 -6 -7 -7 -7 -7 -7 -7 -7 -7 -6 -7 -8 -8 -8
-7 -7 -6 -6 -5 -5 -4 -4 -4 -4 -4 -4 -4 -4 -5 -5 -5 -5 -5 -5 -5 -5 -5 -4 -4 -6 -6 -6 -7 -7 -7 -8 -8 -7 -7 -7 -7 -7 -7 -7 -7 -7 -8 -8 -8
-8 -8 -7 -7 -6 -5 -5 -5 -4 -4 -4 -4 -4 -5 -4 -4 -5 -5 -5 -5 -5 -5 -5 -5 -5 -7 -7 -6 -6 -7 -7 -8 -7 -7 -7 -7 -7 -7 -7 -7 -7 -7 -8 -8 -8
-9 -8 -8 -7 -6 -6 -5 -5 -5 -4 -5 -4 -4 -4 -4 -5 -5 -5 -5 -5 -6 -6 -6 -6 -6 -6 -7 -6 -7 -7 -8 -7 -7 -7 -7 -7 -7 -7 -7 -7 -7 -7 -8 -7 -7
-9 -9 -8 -8 -7 -6 -6 -6 -5 -5 -5 -5 -5 -5 -5 -5 -5 -5 -5 -5 -5 -6 -6 -6 -6 -6 -6 -6 -7 -7 -7 -7 -7 -7 -7 -7 -7 -7 -7 -7 -7 -7 -7 -7 -7
-9 -9 -9 -8 -8 -7 -6 -6 -6 -6 -6 -5 -5 -5 -5 -5 -5 -5 -5 -5 -5 -6 -6 -6 -6 -6 -5 -6 -7 -7 -7 -7 -7 -7 -7 -7 -7 -7 -7 -7 -6 -6 -7 -6 -6
-9 -9 -9 -9 -8 -8 -7 -7 -7 -6 -7 -6 -5 -5 -5 -5 -5 -5 -5 -5 -5 -5 -5 -5 -6 -6 -6 -6 -7 -7 -8 -7 -7 -7 -7 -7 -7 -7 -7 -7 -6 -6 -6 -6 -7
-9 -10 -10 -9 -9 -8 -8 -7 -7 -8 -7 -7 -6 -6 -6 -6 -5 -4 -5 -5 -5 -5 -5 -6 -6 -7 -6 -7 -7 -7 -8 -8 -8 -7 -7 -7 -7 -7 -7 -7 -6 -6 -6 -6 -7
-10 -10 -10 -9 -10 -9 -9 -8 -8 -8 -8 -8 -8 -7 -7 -6 -6 -5 -4 -4 -5 -5 -5 -5 -6 -6 -7 -7 -8 -7 -7 -8 -8 -8 -7 -8 -7 -7 -7 -7 -7 -6 -6 -7 -7
-10 -10 -10 -10 -10 -9 -9 -8 -9 -9 -9 -8 -8 -8 -7 -6 -6 -5 -5 -5 -5 -6 -6 -6 -6 -7 -7 -7 -8 -8 -8 -8 -8 -8 -8 -8 -7 -7 -7 -7 -7 -6 -6 -7 -7
-10 -10 -10 -10 -10 -10 -9 -9 -10 -10 -9 -8 -8 -9 -8 -7 -6 -5 -5 -6 -6 -6 -6 -6 -6 -7 -7 -7 -8 -8 -8 -8 -8 -8 -8 -8 -7 -7 -7 -7 -7 -6 -6 -6 -7
-11 -11 -11 -10 -10 -10 -10 -10 -11 -10 -9 -8 -9 -9 -9 -8 -7 -6 -6 -7 -7 -6 -6 -7 -6 -7 -7 -7 -8 -8 -8 -8 -8 -8 -8 -7 -8 -8 -8 -7 -7 -6 -6 -6 -6
-12 -12 -12 -11 -11 -10 -10 -10 -10 -10 -9 -9 -9 -9 -9 -9 -9 -8 -8 -8 -7 -7 -7 -7 -6 -6 -7 -7 -7 -8 -8 -8 -8 -8 -8 -8 -7 -7 -7 -7 -7 -7 -6 -7 -6
-14 -14 -13 -12 -12 -11 -11 -11 -11 -10 -9 -9 -10 -11 -10 -9 -9 -9 -9 -8 -7 -7 -8 -8 -7 -7 -7 -7 -8 -8 -8 -8 -8 -8 -8 -8 -7 -7 -8 -8 -7 -7 -7 -6 -7
-14 -14 -13 -13 -12 -11 -11 -11 -11 -10 -10 -10 -11 -11 -11 -11 -10 -10 -9 -9 -8 -9 -9 -8 -8 -7 -7 -8 -9 -9 -8 -8 -8 -8 -8 -8 -8 -8 -8 -8 -7 -7 -7 -7 -7
-13 -13 -13 -13 -12 -12 -11 -11 -11 -11 -11 -10 -11 -11 -11 -12 -11 -10 -10 -9 -9 -9 -9 -9 -8 -8 -7 -8 -9 -9 -9 -9 -8 -8 -8 -8 -8 -8 -8 -7 -8 -8 -7 -7 -7
-13 -13 -13 -13 -12 -12 -12 -12 -11 -11 -11 -11 -11 -11 -11 -12 -12 -11 -10 -9 -9 -9 -9 -9 -9 -9 -8 -8 -9 -9 -9 -9 -8 -8 -8 -8 -8 -8 -8 -7 -8 -8 -8 -8 -8

GFSSW_500_temp_279.txt.gz
Temp
-3 -3 -3 -3 -3 -3 -3 -3 -3 -3 -3 -3 -3 -3 -3 -3 -3 -3 -3 -3 -3 -4 -5 -5 -5 -5 -5 -7 -7 -7 -6 -6 -5 -6 -6 -6 -6 -6 -6 -6 -6 -6 -6 -6 -6
-4 -4 -4 -3 -3 -3 -3 -4 -3 -3 -4 -4 -4 -3 -3 -3 -3 -3 -3 -3 -3 -4 -4 -5 -5 -5 -6 -6 -7 -7 -6 -6 -6 -6 -6 -6 -6 -6 -6 -6 -6 -6 -6 -6 -7
-4 -4 -4 -4 -4 -4 -4 -4 -4 -3 -4 -4 -4 -3 -3 -3 -3 -3 -3 -3 -4 -4 -4 -5 -4 -5 -6 -7 -7 -7 -7 -6 -6 -6 -7 -7 -6 -6 -6 -6 -6 -6 -6 -6 -6
-4 -4 -5 -4 -4 -4 -4 -4 -4 -4 -4 -4 -4 -4 -3 -3 -3 -3 -3 -3 -4 -4 -5 -5 -4 -5 -6 -7 -7 -8 -8 -7 -7 -6 -7 -7 -7 -6 -6 -6 -6 -6 -6 -6 -6
-5 -5 -5 -5 -4 -4 -4 -4 -4 -4 -4 -4 -4 -4 -4 -4 -3 -3 -3 -3 -4 -4 -4 -5 -5 -5 -6 -6 -8 -8 -8 -8 -7 -7 -7 -7 -7 -7 -7 -7 -6 -5 -6 -6 -7
-5 -5 -5 -5 -5 -4 -4 -4 -4 -4 -4 -4 -4 -4 -4 -4 -4 -4 -3 -3 -3 -4 -4 -5 -6 -5 -5 -6 -7 -8 -8 -8 -8 -8 -7 -7 -7 -7 -7 -7 -7 -7 -7 -7 -7
-5 -5 -5 -5 -5 -5 -4 -4 -4 -4 -4 -4 -4 -4 -4 -4 -4 -3 -4 -3 -3 -4 -4 -4 -6 -6 -6 -6 -6 -7 -7 -8 -8 -8 -8 -8 -8 -7 -7 -8 -7 -7 -8 -7 -7
-5 -5 -5 -5 -5 -5 -5 -5 -4 -4 -4 -4 -4 -4 -4 -4 -4 -4 -4 -4 -4 -4 -4 -4 -4 -6 -6 -6 -7 -7 -7 -7 -8 -8 -8 -8 -8 -8 -7 -7 -7 -8 -8 -7 -7
-6 -6 -5 -5 -5 -5 -5 -5 -5 -5 -5 -4 -4 -5 -4 -4 -4 -4 -4 -4 -4 -4 -4 -4 -4 -5 -6 -6 -6 -7 -7 -7 -7 -7 -7 -7 -7 -8 -7 -7 -7 -8 -8 -8 -7
-7 -6 -6 -5 -5 -5 -5 -5 -5 -4 -5 -5 -5 -5 -5 -5 -4 -4 -4 -4 -4 -4 -4 -4 -4 -4 -5 -6 -6 -6 -7 -7 -7 -7 -7 -7 -7 -7 -7 -7 -7 -7 -7 -7 -7
-7 -7 -6 -6 -5 -5 -5 -5 -5 -5 -5 -5 -5 -5 -5 -5 -5 -5 -5 -5 -5 -4 -4 -4 -5 -5 -6 -6 -6 -6 -7 -7 -7 -6 -7 -7 -7 -7 -7 -7 -7 -7 -7 -7 -7
-8 -8 -7 -7 -6 -5 -5 -5 -5 -5 -5 -4 -5 -5 -5 -5 -5 -5 -5 -5 -5 -5 -5 -5 -5 -6 -6 -6 -6 -6 -7 -7 -7 -6 -7 -6 -6 -7 -7 -7 -7 -7 -7 -7 -7
-8 -8 -8 -7 -6 -6 -6 -5 -5 -5 -5 -4 -5 -5 -5 -5 -5 -5 -5 -5 -5 -6 -5 -5 -6 -6 -6 -7 -7 -7 -8 -7 -7 -7 -7 -6 -7 -7 -7 -7 -7 -7 -7 -7 -6
-9 -9 -8 -8 -7 -7 -6 -6 -5 -5 -5 -5 -5 -5 -4 -5 -5 -5 -5 -5 -5 -6 -6 -6 -6 -6 -6 -7 -7 -7 -7 -8 -8 -8 -7 -7 -6 -7 -7 -7 -7 -7 -7 -7 -7
-9 -9 -9 -8 -8 -7 -7 -6 -6 -5 -6 -5 -5 -5 -4 -5 -5 -5 -5 -5 -6 -6 -6 -6 -6 -6 -6 -6 -7 -7 -8 -8 -8 -8 -7 -7 -7 -7 -7 -7 -7 -6 -6 -7 -7
-9 -9 -9 -9 -8 -8 -7 -7 -6 -6 -6 -6 -5 -5 -5 -5 -5 -5 -5 -5 -5 -6 -6 -6 -6 -6 -6 -6 -7 -7 -8 -8 -8 -8 -8 -7 -6 -7 -7 -7 -7 -6 -6 -6 -6
-9 -9 -9 -9 -9 -9 -8 -8 -7 -7 -6 -6 -5 -5 -5 -5 -5 -5 -5 -5 -5 -5 -5 -6 -6 -6 -6 -6 -6 -7 -7 -8 -8 -8 -8 -7 -7 -7 -7 -7 -7 -6 -6 -6 -6
-9 -9 -9 -9 -9 -9 -9 -8 -8 -7 -7 -6 -6 -6 -6 -5 -5 -5 -4 -5 -5 -5 -5 -6 -6 -6 -6 -6 -6 -7 -7 -8 -8 -8 -8 -7 -7 -8 -7 -7 -7 -7 -7 -6 -6
-9 -9 -9 -9 -10 -9 -9 -9 -8 -8 -8 -7 -7 -6 -6 -6 -5 -5 -5 -5 -5 -5 -5 -6 -6 -6 -6 -6 -6 -7 -7 -8 -8 -8 -8 -7 -7 -8 -7 -7 -7 -7 -6 -6 -6
-10 -9 -10 -10 -9 -9 -9 -9 -9 -9 -9 -8 -8 -7 -7 -6 -6 -6 -5 -5 -5 -5 -5 -5 -6 -6 -6 -6 -6 -7 -8 -8 -8 -8 -8 -8 -7 -7 -7 -7 -7 -7 -6 -6 -6
-10 -10 -10 -10 -10 -9 -9 -10 -10 -10 -9 -9 -8 -8 -7 -7 -6 -6 -6 -6 -6 -6 -6 -6 -6 -6 -7 -7 -7 -7 -8 -8 -8 -8 -8 -8 -7 -7 -7 -8 -8 -7 -6 -6 -6
-11 -10 -11 -11 -10 -10 -10 -10 -10 -10 -9 -9 -9 -8 -8 -7 -7 -7 -7 -7 -6 -6 -6 -6 -6 -6 -7 -7 -7 -7 -8 -8 -8 -8 -8 -8 -8 -8 -7 -7 -8 -8 -7 -6 -6
-12 -12 -12 -12 -12 -11 -11 -11 -11 -10 -10 -9 -9 -9 -8 -8 -8 -7 -7 -7 -7 -7 -7 -7 -6 -6 -7 -7 -7 -7 -8 -8 -8 -8 -8 -8 -8 -8 -7 -7 -8 -8 -7 -7 -7
-13 -13 -14 -13 -13 -12 -12 -11 -11 -11 -10 -10 -10 -10 -9 -9 -9 -9 -9 -9 -8 -8 -8 -7 -6 -6 -6 -7 -7 -7 -7 -8 -8 -8 -8 -8 -8 -8 -7 -7 -8 -8 -7 -7 -7
-13 -14 -14 -14 -14 -13 -13 -12 -11 -11 -11 -10 -11 -11 -10 -10 -9 -10 -10 -10 -9 -8 -8 -7 -7 -7 -7 -7 -7 -7 -8 -8 -9 -9 -9 -8 -8 -8 -7 -8 -8 -8 -7 -7 -7
-13 -13 -14 -14 -13 -13 -13 -12 -12 -11 -11 -11 -11 -11 -10 -10 -11 -11 -10 -10 -10 -9 -9 -8 -8 -8 -8 -7 -8 -7 -8 -8 -9 -9 -9 -9 -8 -8 -8 -8 -8 -7 -7 -8 -7
-13 -13 -13 -14 -13 -13 -12 -12 -12 -12 -11 -11 -11 -11 -11 -12 -11 -12 -11 -10 -10 -10 -9 -9 -9 -9 -8 -8 -8 -7 -8 -8 -9 -9 -9 -8 -8 -8 -8 -8 -8 -7 -8 -8 -8

GFSSW_500_temp_285.txt.gz
Temp
-2 -2 -3 -3 -3 -3 -3 -3 -3 -3 -3 -3 -3 -3 -3 -3 -3 -3 -4 -4 -4 -5 -5 -5 -5 -5 -5 -5 -6 -6 -7 -8 -7 -6 -6 -5 -5 -5 -5 -5 -6 -6 -6 -6 -6
-3 -3 -3 -3 -3 -3 -3 -3 -3 -3 -3 -3 -3 -3 -3 -3 -3 -3 -3 -4 -4 -5 -5 -5 -4 -5 -6 -6 -7 -7 -8 -7 -7 -6 -6 -6 -5 -5 -5 -6 -6 -6 -6 -6 -6
-3 -3 -3 -3 -3 -3 -3 -3 -3 -3 -3 -3 -3 -3 -3 -3 -3 -3 -3 -4 -4 -5 -5 -5 -4 -5 -7 -7 -7 -7 -8 -6 -6 -6 -6 -6 -6 -6 -6 -6 -6 -6 -6 -6 -6
-3 -4 -4 -4 -4 -4 -3 -4 -4 -4 -3 -3 -3 -3 -3 -3 -3 -3 -3 -4 -4 -5 -5 -5 -5 -7 -7 -6 -7 -7 -6 -6 -6 -6 -6 -6 -7 -7 -7 -6 -6 -6 -6 -6 -6
-3 -4 -4 -4 -4 -4 -4 -4 -4 -4 -4 -4 -4 -3 -3 -3 -3 -3 -3 -4 -4 -5 -5 -5 -7 -7 -7 -7 -7 -7 -6 -5 -5 -6 -6 -6 -7 -6 -6 -6 -7 -6 -6 -6 -6
-4 -4 -4 -4 -4 -4 -4 -4 -4 -4 -4 -4 -4 -4 -4 -3 -3 -3 -3 -4 -4 -4 -5 -5 -5 -5 -7 -7 -6 -6 -5 -5 -5 -6 -6 -6 -6 -5 -6 -6 -7 -7 -6 -6 -6
-4 -4 -4 -4 -5 -4 -4 -4 -4 -4 -4 -4 -4 -4 -4 -3 -4 -4 -3 -4 -4 -4 -4 -5 -5 -5 -7 -7 -5 -6 -6 -6 -5 -6 -6 -6 -5 -5 -6 -6 -7 -7 -7 -6 -6
-5 -5 -5 -4 -5 -5 -5 -5 -4 -4 -4 -4 -4 -4 -4 -4 -4 -4 -4 -4 -4 -4 -4 -4 -5 -4 -5 -5 -5 -7 -7 -5 -5 -6 -5 -4 -5 -6 -5 -6 -6 -7 -7 -7 -7
-5 -5 -5 -5 -5 -5 -5 -5 -5 -5 -5 -4 -4 -4 -4 -4 -4 -4 -4 -4 -4 -4 -4 -4 -5 -5 -7 -7 -6 -5 -6 -6 -6 -6 -5 -6 -6 -6 -5 -6 -6 -6 -7 -6 -6
-6 -6 -6 -5 -5 -5 -5 -5 -5 -5 -5 -5 -4 -4 -4 -4 -4 -4 -4 -4 -4 -4 -4 -4 -5 -6 -7 -6 -6 -6 -5 -6 -6 -7 -6 -6 -6 -6 -6 -6 -6 -6 -6 -6 -5
-6 -6 -6 -6 -6 -6 -5 -5 -5 -5 -5 -5 -4 -4 -4 -4 -4 -4 -4 -4 -4 -4 -4 -5 -6 -7 -6 -6 -6 -6 -6 -6 -6 -6 -5 -7 -7 -6 -6 -5 -6 -6 -6 -6 -5
-7 -7 -7 -6 -6 -6 -6 -5 -5 -5 -5 -5 -5 -5 -4 -4 -5 -5 -5 -4 -4 -4 -4 -6 -5 -7 -6 -6 -5 -7 -6 -6 -6 -6 -5 -6 -6 -7 -6 -6 -6 -6 -6 -6 -6
-7 -7 -7 -7 -7 -7 -6 -6 -6 -5 -5 -5 -5 -5 -5 -5 -5 -5 -5 -5 -5 -5 -5 -5 -7 -7 -6 -7 -6 -7 -6 -6 -6 -6 -6 -6 -6 -6 -7 -6 -5 -6 -6 -6 -6
-7 -7 -7 -7 -7 -7 -7 -6 -6 -6 -6 -5 -5 -5 -5 -5 -5 -4 -5 -5 -5 -5 -5 -7 -7 -7 -7 -7 -7 -6 -6 -7 -6 -6 -6 -6 -5 -6 -6 -7 -5 -6 -6 -6 -6
-7 -7 -7 -7 -8 -8 -7 -7 -7 -7 -6 -5 -5 -4 -5 -5 -5 -4 -5 -5 -5 -5 -5 -6 -7 -7 -7 -7 -7 -7 -7 -6 -7 -6 -6 -5 -5 -6 -5 -6 -5 -6 -6 -7 -6
-7 -7 -7 -8 -8 -8 -8 -8 -8 -8 -8 -6 -5 -5 -5 -5 -5 -5 -5 -5 -5 -6 -6 -6 -7 -7 -7 -7 -7 -7 -7 -7 -6 -7 -6 -6 -6 -6 -4 -6 -5 -6 -7 -7 -7
-7 -7 -7 -8 -8 -8 -9 -9 -9 -8 -8 -7 -6 -5 -5 -5 -5 -5 -5 -5 -5 -5 -5 -5 -6 -5 -5 -6 -7 -7 -7 -7 -6 -5 -5 -6 -6 -6 -6 -5 -6 -7 -7 -7 -7
-8 -8 -8 -8 -8 -9 -9 -9 -9 -10 -10 -7 -7 -6 -6 -6 -5 -5 -5 -5 -5 -6 -7 -6 -6 -5 -5 -5 -7 -7 -7 -6 -6 -5 -5 -6 -6 -6 -5 -6 -6 -7 -7 -7 -7
-8 -8 -8 -9 -9 -9 -9 -9 -10 -11 -10 -8 -7 -7 -7 -6 -6 -5 -5 -5 -5 -6 -7 -7 -7 -7 -6 -6 -7 -7 -7 -6 -6 -5 -5 -5 -6 -6 -6 -5 -6 -6 -7 -7 -7
-9 -9 -9 -9 -9 -9 -9 -10 -11 -10 -8 -9 -9 -8 -9 -7 -6 -6 -6 -6 -6 -6 -6 -7 -7 -7 -7 -6 -6 -6 -6 -6 -6 -5 -5 -6 -5 -5 -6 -6 -6 -6 -7 -7 -7
-9 -9 -9 -9 -9 -10 -10 -11 -11 -10 -10 -10 -10 -8 -9 -9 -7 -8 -7 -7 -6 -7 -5 -6 -7 -7 -8 -7 -5 -7 -7 -7 -6 -5 -5 -4 -4 -5 -6 -6 -6 -7 -7 -7 -7
-9 -10 -10 -10 -10 -10 -11 -11 -10 -10 -10 -10 -9 -9 -8 -9 -7 -8 -9 -9 -7 -7 -6 -6 -7 -7 -7 -8 -6 -7 -7 -7 -6 -6 -5 -5 -5 -6 -6 -6 -6 -6 -7 -7 -7
-9 -10 -10 -10 -11 -11 -11 -11 -11 -11 -10 -11 -10 -10 -9 -9 -8 -8 -10 -10 -6 -6 -7 -6 -6 -8 -7 -7 -7 -7 -7 -7 -6 -6 -6 -5 -5 -6 -6 -6 -6 -6 -6 -7 -7
-9 -10 -10 -11 -11 -11 -12 -12 -12 -12 -11 -11 -11 -11 -10 -9 -9 -9 -9 -8 -7 -7 -7 -7 -8 -8 -7 -7 -7 -8 -6 -7 -7 -6 -5 -5 -6 -7 -6 -6 -7 -6 -7 -7 -7
-10 -10 -10 -11 -11 -12 -12 -13 -13 -13 -12 -11 -11 -11 -10 -11 -10 -11 -10 -11 -8 -8 -8 -7 -7 -8 -8 -8 -7 -7 -7 -6 -7 -7 -6 -6 -6 -6 -6 -7 -6 -7 -7 -7 -7
-10 -10 -10 -11 -12 -12 -13 -14 -14 -14 -14 -14 -12 -12 -11 -11 -12 -11 -11 -11 -11 -9 -8 -8 -7 -9 -9 -8 -8 -8 -8 -7 -8 -7 -7 -7 -7 -6 -7 -7 -7 -7 -7 -8 -8
-10 -10 -11 -11 -12 -13 -13 -13 -14 -14 -13 -12 -13 -12 -11 -11 -11 -11 -10 -10 -11 -11 -10 -10 -9 -10 -9 -9 -8 -7 -7 -8 -8 -7 -7 -7 -7 -7 -7 -7 -7 -7 -7 -8 -8

GFSSW_500_temp_291.txt.gz
Temp
-1 -1 -2 -2 -2 -2 -3 -3 -3 -3 -2 -2 -2 -2 -2 -2 -2 -2 -2 -3 -4 -4 -4 -4 -4 -5 -5 -6 -6 -6 -6 -6 -4 -4 -4 -5 -6 -6 -5 -5 -4 -5 -5 -6 -6
-1 -1 -2 -2 -2 -2 -3 -3 -3 -3 -3 -2 -2 -2 -2 -2 -2 -2 -2 -2 -5 -5 -5 -5 -5 -4 -4 -5 -5 -6 -5 -5 -5 -5 -4 -5 -5 -5 -5 -5 -6 -6 -5 -5 -5
-2 -2 -2 -2 -3 -2 -2 -3 -3 -3 -3 -3 -3 -2 -2 -2 -2 -2 -1 -3 -4 -4 -6 -5 -5 -5 -4 -6 -6 -6 -5 -5 -5 -5 -4 -4 -4 -4 -5 -5 -5 -6 -5 -5 -5
-2 -2 -2 -2 -3 -3 -3 -3 -3 -3 -3 -3 -3 -3 -2 -2 -2 -2 -2 -2 -4 -4 -5 -4 -5 -6 -5 -5 -6 -5 -6 -5 -5 -5 -5 -5 -5 -5 -5 -5 -5 -5 -5 -5 -5
-3 -3 -3 -3 -3 -3 -3 -3 -3 -3 -3 -3 -3 -3 -3 -3 -2 -2 -2 -2 -3 -4 -4 -3 -4 -6 -6 -5 -6 -6 -6 -5 -5 -5 -6 -6 -5 -6 -6 -6 -5 -5 -5 -5 -5
-4 -4 -3 -3 -3 -3 -3 -3 -3 -3 -3 -3 -3 -3 -3 -3 -3 -2 -2 -2 -3 -2 -3 -4 -4 -6 -6 -6 -6 -6 -5 -5 -5 -6 -6 -6 -5 -5 -6 -6 -6 -6 -5 -5 -4
-4 -4 -4 -4 -3 -3 -4 -4 -4 -4 -3 -3 -3 -3 -3 -3 -3 -3 -3 -2 -2 -2 -3 -5 -2 -6 -6 -6 -6 -5 -5 -5 -5 -5 -6 -6 -5 -5 -5 -5 -6 -6 -5 -5 -5
-4 -4 -4 -4 -4 -4 -4 -4 -4 -4 -4 -3 -3 -3 -4 -4 -3 -3 -3 -3 -3 -2 -2 -4 -3 -4 -6 -6 -6 -6 -6 -5 -5 -5 -6 -6 -6 -5 -6 -5 -5 -5 -6 -6 -6
-4 -4 -5 -4 -4 -4 -4 -4 -4 -4 -4 -3 -3 -3 -4 -4 -4 -4 -3 -3 -3 -3 -3 -4 -5 -5 -4 -6 -6 -6 -6 -6 -4 -5 -6 -7 -6 -6 -6 -6 -6 -5 -5 -6 -6
-5 -5 -5 -5 -5 -5 -5 -4 -4 -4 -4 -4 -3 -3 -4 -4 -4 -4 -4 -4 -3 -3 -3 -3 -4 -5 -5 -6 -6 -6 -5 -6 -6 -5 -7 -6 -6 -6 -5 -5 -6 -6 -5 -6 -7
-5 -6 -5 -5 -5 -5 -5 -5 -5 -4 -4 -4 -3 -4 -4 -4 -4 -4 -4 -4 -4 -4 -3 -3 -4 -5 -4 -6 -6 -6 -5 -6 -6 -6 -7 -6 -5 -6 -6 -5 -5 -5 -6 -6 -6
-6 -6 -6 -6 -6 -6 -5 -5 -5 -4 -4 -4 -4 -4 -3 -4 -4 -4 -4 -4 -4 -4 -4 -4 -3 -5 -5 -7 -7 -7 -6 -6 -6 -5 -7 -6 -6 -6 -6 -5 -6 -5 -6 -6 -6
-6 -6 -6 -6 -6 -6 -6 -6 -6 -5 -5 -5 -4 -4 -4 -4 -5 -5 -4 -4 -4 -4 -4 -4 -4 -5 -4 -6 -7 -7 -5 -6 -6 -6 -6 -6 -7 -6 -5 -6 -7 -6 -5 -5 -6
-6 -6 -6 -6 -6 -6 -6 -6 -6 -6 -5 -5 -5 -5 -4 -4 -4 -5 -5 -5 -4 -4 -4 -4 -4 -4 -5 -6 -6 -6 -6 -5 -6 -7 -5 -6 -7 -6 -6 -6 -5 -6 -6 -6 -6
-6 -6 -7 -7 -6 -6 -7 -7 -7 -7 -7 -6 -5 -5 -5 -5 -5 -5 -5 -5 -5 -4 -4 -4 -4 -4 -5 -6 -6 -6 -6 -6 -7 -6 -6 -6 -6 -6 -5 -6 -6 -5 -6 -6 -7
-7 -7 -7 -7 -7 -7 -7 -7 -7 -7 -8 -8 -6 -6 -6 -5 -6 -5 -5 -5 -5 -5 -5 -4 -5 -5 -6 -6 -6 -6 -7 -6 -6 -6 -6 -6 -6 -5 -5 -5 -5 -5 -6 -7 -6
-7 -7 -7 -7 -7 -7 -7 -7 -7 -7 -9 -9 -9 -8 -7 -6 -6 -6 -5 -5 -5 -5 -4 -5 -4 -4 -6 -6 -6 -6 -6 -6 -6 -6 -6 -6 -5 -6 -6 -6 -6 -5 -6 -7 -6
-7 -7 -7 -7 -7 -7 -7 -7 -8 -9 -10 -10 -10 -10 -6 -7 -6 -6 -6 -5 -6 -6 -5 -5 -5 -5 -5 -6 -7 -6 -6 -7 -7 -6 -6 -6 -6 -5 -5 -5 -5 -5 -6 -7 -6
-8 -8 -8 -8 -8 -8 -8 -8 -9 -10 -9 -10 -10 -10 -10 -9 -7 -7 -7 -7 -6 -6 -6 -6 -5 -6 -6 -6 -6 -6 -6 -6 -6 -6 -6 -6 -6 -5 -5 -5 -5 -6 -6 -6 -6
-8 -8 -8 -8 -8 -8 -8 -9 -9 -9 -9 -10 -10 -10 -10 -9 -9 -9 -7 -7 -6 -6 -6 -6 -6 -6 -6 -6 -6 -6 -6 -6 -6 -6 -6 -5 -5 -5 -5 -5 -7 -5 -4 -6 -6
-8 -8 -8 -8 -8 -9 -9 -10 -10 -10 -10 -10 -10 -10 -9 -9 -9 -9 -9 -9 -8 -8 -6 -6 -7 -6 -6 -6 -6 -6 -6 -6 -6 -6 -6 -6 -5 -5 -6 -6 -6 -5 -4 -5 -5
-9 -9 -9 -9 -9 -9 -9 -10 -11 -10 -10 -9 -9 -9 -10 -9 -10 -9 -9 -9 -9 -9 -8 -8 -7 -6 -6 -6 -6 -6 -6 -6 -6 -5 -6 -6 -5 -5 -6 -6 -5 -6 -6 -5 -6
-9 -9 -9 -9 -9 -9 -9 -10 -12 -11 -10 -10 -9 -9 -10 -10 -9 -9 -9 -9 -9 -8 -8 -8 -8 -7 -6 -6 -6 -6 -6 -6 -7 -7 -6 -6 -6 -6 -6 -5 -6 -6 -7 -7 -6
-9 -9 -10 -9 -9 -9 -9 -11 -10 -12 -11 -11 -11 -10 -10 -10 -9 -9 -9 -9 -9 -9 -8 -8 -8 -8 -7 -6 -6 -6 -6 -6 -6 -6 -6 -6 -6 -5 -5 -6 -6 -7 -6 -6 -6
-9 -9 -10 -10 -10 -10 -10 -11 -11 -11 -13 -13 -11 -11 -12 -10 -10 -9 -9 -10 -10 -9 -9 -9 -8 -8 -7 -7 -6 -6 -6 -7 -6 -6 -6 -6 -6 -6 -6 -6 -7 -7 -7 -6 -6
-10 -10 -10 -10 -10 -10 -10 -10 -10 -11 -11 -11 -13 -12 -12 -12 -11 -11 -10 -10 -11 -11 -9 -9 -8 -8 -8 -7 -7 -7 -6 -6 -6 -6 -6 -6 -6 -6 -6 -7 -7 -7 -7 -5 -7
-10 -10 -10 -11 -10 -10 -10 -10 -10 -11 -11 -11 -12 -12 -13 -13 -11 -11 -11 -11 -10 -10 -10 -9 -8 -8 -7 -7 -7 -7 -7 -6 -6 -7 -7 -7 -6 -6 -6 -6 -7 -7 -7 -5 -7